Temp
11 10 9 11 13 12 11 11 10 12 14 14 14 13 13 17 17 17 18 18 19 19 18 18 17 15 14 15 15 16 17 18 18 16 16 17 18 19 19 19 19 18 19 19
10 8 12 13 13 12 11 11 11 13 14 13 14 14 16 17 16 16 16 17 17 18 18 19 17 15 13 15 16 14 17 17 17 17 17 18 18 19 19 19 19 19 19 19
10 12 13 12 11 10 11 10 10 11 12 12 12 14 15 17 17 17 16 17 18 18 18 19 18 16 14 14 15 16 16 17 17 17 17 18 19 19 18 18 19 18 18 18
11 13 11 11 10 10 9 12 9 9 9 11 15 14 15 16 16 16 16 17 17 18 18 18 17 16 14 14 15 15 16 16 17 17 17 17 17 18 18 18 17 17 18 17
11 11 11 11 11 9 9 9 9 9 10 10 13 11 14 17 14 14 15 16 17 18 18 17 17 17 15 15 15 15 15 16 17 17 17 17 17 18 17 17 17 16 17 16
10 12 11 11 11 10 9 9 9 9 10 12 14 12 12 11 12 15 15 16 16 15 16 16 17 17 16 15 16 16 15 16 17 17 18 17 17 18 17 17 17 16 16 15
11 11 11 9 8 12 10 10 13 13 12 14 12 12 11 11 12 14 13 13 13 14 15 16 17 17 16 15 15 15 15 16 15 16 16 16 16 17 17 17 17 16 15 15
10 11 10 9 9 9 9 11 12 13 14 14 16 13 11 12 15 14 13 12 13 13 13 16 17 16 16 15 15 15 14 14 15 14 15 15 15 15 15 15 17 15 15 15
11 11 12 10 8 8 11 12 11 11 12 14 13 12 12 14 14 12 11 12 12 12 13 14 17 16 16 15 14 14 14 14 14 14 15 15 15 16 15 15 15 15 15 15
10 10 13 12 10 10 10 11 13 13 14 14 13 12 11 11 12 11 11 11 11 11 13 13 15 16 16 16 15 15 15 15 15 14 15 14 15 15 15 15 15 14 15 15
10 11 12 12 10 10 11 12 13 14 14 13 14 12 10 12 12 12 11 11 11 10 11 12 13 16 15 15 15 15 15 15 14 14 14 14 14 14 14 15 15 14 14 14
12 12 11 12 14 13 12 13 13 13 15 15 15 11 14 14 13 12 11 11 10 10 11 13 13 15 15 14 14 14 14 15 15 14 14 14 13 13 13 13 14 15 15 15
13 12 12 14 15 15 13 15 14 14 15 14 14 12 16 15 14 13 11 11 10 10 11 12 12 14 13 12 12 13 13 14 14 14 14 14 13 13 13 13 13 13 14 13
12 12 11 12 12 12 12 15 14 12 14 14 13 13 14 15 14 14 13 13 12 11 10 11 13 13 12 12 11 11 12 13 13 13 13 13 13 13 13 13 13 13 13 12
14 11 13 14 14 15 15 15 16 14 15 13 14 14 14 15 15 14 14 14 13 12 11 11 11 13 13 13 12 10 10 11 12 12 12 12 12 11 11 11 10 10 10 10
14 13 13 13 15 15 13 14 15 15 16 15 15 14 15 15 15 14 13 13 12 12 12 12 12 12 12 12 11 11 10 10 11 11 10 10 10 10 10 10 10 10 10 11
14 14 14 14 14 14 14 12 14 14 15 16 14 14 16 14 13 13 13 13 12 12 12 12 12 12 12 12 12 11 10 10 10 9 9 9 9 9 9 9 9 9 9 9
13 14 14 15 15 14 13 14 14 14 14 15 14 14 14 13 13 12 12 12 12 11 11 12 12 11 12 12 11 11 10 10 9 9 8 8 8 8 7 7 7 7 7 7
12 13 14 15 14 13 13 14 13 12 13 14 14 15 15 14 15 12 12 12 11 11 11 10 11 11 11 11 11 11 10 10 9 9 8 8 8 7 7 7 7 7 7 6
12 13 14 14 14 14 14 13 14 14 12 14 14 14 14 16 15 11 11 11 11 10 9 10 10 11 11 10 11 11 11 11 9 9 8 8 7 7 7 7 6 5 6 6
14 14 14 15 14 13 14 13 13 13 12 14 14 14 14 12 12 11 11 10 10 9 9 9 8 8 9 9 10 10 9 8 8 7 7 7 7 7 7 6 6 6 6 5
14 14 15 14 14 13 13 13 13 13 13 14 13 13 13 12 12 11 11 10 9 9 8 8 8 7 6 7 9 8 7 7 7 7 7 6 6 6 5 5 5 5 4 4
14 14 14 13 13 11 11 12 12 13 13 13 13 12 12 12 11 11 11 10 9 9 8 8 8 6 5 4 5 4 4 6 6 7 7 6 6 6 5 5 5 5 5 5
12 12 14 13 12 12 12 11 12 12 12 12 12 12 12 12 12 11 10 10 9 8 8 8 8 7 6 4 3 4 5 5 6 6 6 5 6 6 6 5 6 6 6 6
13 12 13 13 12 11 11 12 12 11 11 11 11 11 11 12 12 11 10 9 8 8 7 7 7 6 5 5 4 3 3 4 4 4 5 5 4 4 4 4 4 4 5 5
12 14 13 15 15 15 14 12 11 11 10 10 11 10 11 11 11 11 10 9 8 8 7 7 6 6 5 4 3 3 2 3 4 4 4 3 3 3 3 4 4 4 4 4
Height
775 777 773 765 756 756 756 756 753 737 730 728 722 720 718 701 700 699 697 700 701 704 709 712 719 717 716 721 714 722 727 737 745 757 764 771 776 781 787 792 797 802 807 811
775 776 756 750 750 756 756 753 741 730 725 726 717 706 696 695 699 701 700 699 703 703 704 705 711 713 716 715 714 718 731 737 742 750 761 767 772 779 783 790 795 800 804 808
768 752 750 752 754 756 751 751 740 739 728 726 718 697 693 690 692 694 698 696 694 696 698 697 703 708 712 712 715 721 725 735 738 747 755 763 772 778 781 787 794 798 802 807
756 747 751 751 750 753 752 734 743 741 741 720 698 689 687 684 691 696 694 693 693 695 695 696 695 700 703 708 711 729 735 732 736 743 753 760 768 773 778 784 790 796 801 805
752 749 747 746 741 753 742 740 738 733 727 724 699 711 689 679 696 696 693 690 689 690 691 692 694 698 701 707 712 723 728 731 728 740 749 758 765 771 776 783 787 795 800 803
753 746 749 744 738 741 740 733 726 729 722 701 687 707 700 707 699 690 692 690 690 690 690 693 693 694 696 704 707 717 728 718 732 737 746 754 760 767 773 779 786 792 798 801
744 744 742 751 748 728 733 720 689 692 704 684 691 697 706 709 698 691 694 696 696 695 693 687 685 687 692 704 706 718 720 717 728 739 747 753 759 763 769 773 780 790 796 798
752 738 745 750 747 743 738 718 700 691 684 685 676 695 709 702 690 693 699 702 698 692 689 683 681 684 691 700 710 720 727 724 727 738 750 755 758 762 769 769 781 788 793 798
750 739 737 743 749 746 722 706 713 706 702 689 702 709 706 697 690 700 701 699 698 695 691 685 681 685 691 702 710 723 728 733 735 740 744 751 755 757 763 775 781 784 790 798
758 750 728 730 739 735 732 725 706 697 693 692 698 705 718 706 702 704 703 702 702 699 694 690 687 689 696 705 710 723 729 728 729 738 744 755 755 763 768 770 775 784 785 792
759 752 738 732 740 738 730 720 713 705 701 699 696 716 724 711 713 709 709 706 704 703 701 701 693 694 699 707 714 720 728 729 731 740 746 752 754 758 757 763 770 777 781 786
748 748 742 734 726 728 727 719 716 710 704 703 703 729 717 711 714 715 712 712 713 715 707 703 699 700 705 712 714 717 726 729 732 738 743 750 755 759 760 763 772 774 778 782
748 743 740 724 723 721 723 712 714 713 706 710 710 731 718 715 715 722 726 723 721 722 721 716 716 713 717 720 722 728 732 734 738 743 748 752 756 758 762 766 769 776 776 785
754 749 749 742 742 742 736 716 715 722 716 726 730 734 726 725 728 728 729 730 732 730 728 727 723 725 728 728 732 736 736 738 743 746 752 755 758 760 763 768 772 775 778 783
746 755 745 738 738 731 729 727 720 724 721 732 735 735 739 737 736 739 735 737 740 734 734 736 735 734 736 737 739 741 743 745 749 752 755 756 762 763 765 769 772 775 779 784
745 750 749 747 737 733 741 735 733 729 728 732 736 743 744 744 744 743 744 746 743 744 751 750 746 744 748 745 747 751 751 753 756 757 758 759 764 766 769 769 773 776 779 781
748 745 744 746 743 740 741 753 744 741 740 735 746 749 743 751 754 756 754 752 755 754 755 755 753 755 758 755 752 754 757 759 760 762 763 765 768 768 770 772 775 778 781 783
751 749 747 738 737 741 754 753 750 748 749 746 747 750 752 755 757 762 764 763 764 764 763 761 762 764 761 759 758 762 761 763 765 768 767 768 770 771 772 775 777 778 782 785
760 753 745 741 742 754 754 755 756 759 756 752 749 749 751 755 749 762 766 767 768 768 767 765 764 762 759 761 763 764 767 769 769 771 769 771 772 772 774 777 778 778 783 785
760 756 748 746 750 747 748 756 755 753 763 757 754 754 752 744 751 768 769 768 770 772 773 770 768 767 766 769 770 771 773 773 775 775 774 773 774 774 775 780 781 783 785 785
750 748 747 745 749 754 757 758 759 759 767 760 760 761 759 762 768 773 773 775 773 772 774 777 776 776 775 777 778 779 778 775 778 777 776 775 776 776 777 779 780 781 782 787
750 749 747 750 748 757 764 764 760 763 763 764 765 766 767 770 772 774 775 775 775 774 774 774 774 776 777 775 776 779 781 782 780 777 776 776 778 777 779 778 781 783 784 789
752 755 750 755 757 767 767 766 769 767 766 770 769 771 771 772 773 774 775 775 776 777 776 778 777 777 775 773 773 772 773 775 779 779 776 777 779 778 779 780 784 787 787 789
758 762 754 759 764 763 766 769 769 769 770 771 772 772 773 772 774 776 777 777 778 778 780 781 780 780 781 780 778 777 776 775 774 774 776 780 781 783 784 785 786 788 790 791
753 759 754 757 763 766 767 767 769 772 773 774 775 775 775 774 775 777 780 782 783 784 785 784 784 784 785 785 785 784 785 782 780 780 779 780 782 784 783 785 787 785 785 786
752 747 750 743 746 749 753 764 769 771 774 776 776 777 778 777 777 779 781 784 784 784 786 786 787 788 789 789 789 788 787 788 788 786 785 785 785 786 782 781 782 782 784 784
Wind_Speed
8 7 11 18 16 19 16 19 23 23 22 22 22 19 20 22 14 17 17 15 17 14 12 11 9 6 7 14 18 23 39 39 33 34 28 28 26 25 25 24 25 27 25 23
7 14 17 14 16 15 18 21 26 25 22 19 22 25 15 17 16 15 14 14 16 14 15 12 6 4 17 14 18 17 33 36 34 33 28 31 27 25 26 24 25 26 24 23
14 15 9 13 14 17 19 20 25 24 24 21 23 24 19 18 20 14 11 12 15 16 16 12 7 5 24 17 23 32 27 35 33 33 27 25 24 22 24 23 23 24 22 23
12 10 9 11 16 14 20 20 25 24 17 13 13 5 16 16 12 13 15 12 14 16 14 11 7 8 20 26 24 34 38 31 35 33 29 28 25 23 21 21 21 22 22 23
6 7 11 15 18 8 11 13 11 13 10 8 12 6 2 14 9 10 9 12 11 12 12 9 9 13 24 20 23 26 39 44 37 37 32 31 24 22 23 22 22 20 22 22
18 18 13 12 14 14 15 10 14 7 4 5 8 10 3 1 9 8 5 5 0 3 7 10 13 14 19 22 15 11 24 29 35 34 32 29 25 24 25 23 22 20 21 20
8 8 6 2 8 6 6 11 3 5 6 1 0 6 5 7 5 5 9 9 7 3 1 7 11 11 20 22 19 18 3 17 22 22 25 22 21 23 22 25 24 24 21 23
5 2 4 2 3 5 8 6 4 5 3 4 9 5 6 9 3 14 10 7 7 12 10 5 8 7 24 25 25 17 19 12 12 15 16 22 19 18 16 14 24 22 21 19
5 3 3 3 3 2 7 5 9 6 2 2 3 1 5 16 15 15 11 8 13 14 13 9 7 8 24 25 30 30 25 25 21 15 11 11 11 4 10 12 12 23 20 16
4 5 2 2 4 8 4 9 3 1 6 4 5 6 7 14 15 13 14 13 14 15 14 12 3 13 23 24 27 24 23 22 20 22 23 22 17 22 25 24 20 13 14 10
4 4 7 4 4 4 4 3 5 4 3 4 3 5 9 13 11 12 12 12 14 14 13 10 7 15 21 19 21 21 17 16 27 26 29 27 25 24 18 21 30 26 16 16
3 4 4 4 3 5 7 9 4 4 5 6 6 6 11 15 15 14 15 15 13 12 13 12 10 15 19 16 16 13 10 14 20 20 24 20 21 22 25 25 29 26 26 25
9 5 3 5 4 5 5 14 3 3 2 13 5 4 13 17 19 16 10 13 13 13 12 13 12 13 17 16 18 16 14 15 17 19 18 20 22 20 19 22 25 27 25 25
5 5 5 6 5 5 7 14 12 3 8 12 13 14 17 17 17 15 13 15 14 14 14 14 13 12 15 16 15 14 14 14 13 18 21 18 21 23 23 21 22 23 27 28
3 3 5 7 7 12 12 16 18 13 14 9 14 17 13 13 14 15 14 14 15 17 16 15 14 11 14 15 14 14 12 11 11 12 15 16 17 19 22 25 26 25 23 23
3 2 4 6 8 12 15 17 15 14 15 15 16 15 10 12 12 14 14 14 15 15 14 13 12 12 13 15 14 11 12 10 10 11 12 16 16 17 19 22 22 21 22 22
4 2 2 3 2 5 5 12 9 13 13 10 10 9 10 12 14 14 14 14 14 13 13 12 12 11 10 10 10 10 11 10 11 11 11 11 12 16 18 18 19 18 19 20
4 2 2 2 4 2 3 5 8 12 12 11 10 10 9 10 13 14 13 13 13 12 12 11 11 9 8 10 10 8 9 10 10 9 10 10 11 11 13 16 16 18 18 17
2 3 0 2 5 4 3 2 3 5 8 10 10 9 8 3 6 16 14 13 12 12 12 12 11 10 11 11 9 9 8 7 8 8 8 8 9 12 11 13 14 14 16 17
3 3 3 1 2 1 4 4 4 5 2 7 8 9 9 8 7 7 11 13 13 15 15 15 14 13 13 11 8 7 7 7 6 5 7 8 9 9 10 12 12 13 14 15
1 1 1 3 2 4 4 2 3 3 4 4 5 7 10 9 6 5 7 9 12 14 15 14 14 14 13 10 9 10 9 10 6 4 3 5 7 8 10 12 11 13 12 13
2 2 1 1 0 4 1 3 4 5 5 5 5 6 7 7 6 6 7 8 10 13 14 14 15 15 14 14 11 12 13 8 5 5 5 4 4 5 6 8 9 11 11 12
1 3 3 4 3 3 3 5 4 2 5 4 4 4 4 3 4 5 5 7 8 10 12 11 12 14 15 16 14 14 14 12 9 6 6 3 2 2 3 5 6 7 9 10
3 2 1 3 4 5 5 4 4 3 5 4 4 3 1 3 3 3 4 5 7 10 10 9 11 13 13 12 14 14 12 10 9 8 8 5 2 1 2 4 6 9 11 12
2 6 5 2 4 4 5 4 5 5 4 3 3 3 3 1 1 1 2 3 4 4 5 7 8 10 10 10 12 11 10 10 9 7 5 5 7 5 3 5 7 7 7 9
7 6 5 2 9 5 10 10 8 6 4 3 1 1 2 3 1 0 2 1 2 4 4 5 5 6 7 8 9 10 11 10 7 4 4 3 1 5 5 7 10 10 13 14
Wind_Direction
251 263 251 245 248 247 263 267 273 276 278 275 268 268 257 249 250 242 231 231 238 228 235 214 219 264 225 228 231 196 175 179 163 168 172 170 171 168 165 168 169 171 172 171
248 250 259 268 270 276 272 274 271 279 273 264 271 267 246 240 224 227 228 229 224 228 232 222 194 214 199 182 212 247 186 180 167 167 177 178 171 169 167 167 169 173 172 171
251 261 284 269 270 271 266 262 270 269 286 279 267 252 247 233 226 220 243 246 232 225 220 228 211 179 191 165 187 239 237 186 170 171 171 172 170 166 166 170 175 174 171 171
269 283 273 276 272 270 272 263 254 260 264 259 207 249 207 219 216 240 247 234 235 213 223 235 224 178 180 199 192 218 223 212 172 172 172 172 166 166 171 171 170 172 176 175
278 311 293 279 278 278 252 296 271 261 261 261 222 274 158 191 217 245 237 248 235 224 223 234 234 191 181 189 191 209 208 213 165 174 171 171 171 173 167 169 168 176 175 175
261 276 284 261 295 274 270 265 256 233 262 250 190 206 71 285 226 223 201 210 5 336 259 233 220 196 170 179 149 206 224 218 176 176 184 177 172 165 167 165 167 165 167 165
305 245 260 297 290 284 295 279 246 174 198 123 216 107 47 14 329 90 81 49 16 41 259 192 204 182 159 178 177 230 327 137 152 175 173 166 161 166 165 161 160 170 166 167
320 299 324 87 272 307 302 291 327 351 34 87 28 46 22 28 108 93 66 43 26 28 9 351 181 187 155 147 156 191 241 228 129 132 131 141 142 146 141 136 186 163 165 171
319 329 292 222 231 258 320 321 333 310 134 81 7 164 269 32 66 53 28 22 41 26 10 359 145 170 153 156 160 184 199 202 172 188 184 200 220 162 157 148 143 147 145 156
327 293 329 48 242 228 291 320 327 281 0 63 21 52 1 16 48 60 17 42 34 20 14 13 21 156 148 158 162 173 186 193 192 174 173 202 183 200 196 196 202 199 182 201
279 262 353 344 351 314 333 357 319 290 3 346 33 38 357 29 56 54 28 36 35 12 8 10 6 109 104 129 134 156 184 180 171 173 176 188 201 211 209 199 206 206 208 197
338 296 316 284 279 278 300 321 328 328 56 18 77 46 32 52 60 63 25 37 26 29 7 29 26 78 86 92 108 118 147 147 167 188 180 180 192 198 191 193 199 205 219 217
348 356 296 308 148 22 356 9 35 8 341 30 58 65 47 52 52 64 58 29 20 19 37 42 38 59 60 68 77 98 124 147 173 178 169 176 180 171 173 178 187 198 191 200
298 20 6 48 38 342 347 41 52 55 70 84 71 79 51 47 55 54 58 61 49 32 28 39 39 52 62 63 77 81 93 122 154 163 175 165 175 183 186 184 187 190 180 168
327 61 49 63 64 50 45 53 60 58 70 71 80 65 57 55 52 53 52 46 55 50 35 28 29 28 48 75 77 82 89 101 133 148 152 151 162 164 171 167 161 159 158 161
344 95 92 76 62 63 55 31 54 50 80 95 86 74 76 62 60 48 49 45 41 41 49 46 40 27 27 49 62 75 91 112 122 123 128 149 154 153 157 160 159 160 161 161
4 340 305 123 307 291 39 11 29 57 46 44 69 53 61 62 59 48 42 46 42 38 31 35 35 42 42 45 60 73 89 99 116 127 131 139 143 149 155 156 159 159 165 166
338 330 313 354 277 79 54 43 24 66 44 43 60 49 63 82 73 60 47 46 40 35 31 23 24 36 46 64 72 81 88 101 112 121 131 141 144 142 146 149 155 159 162 162
347 274 256 286 48 113 132 95 30 8 42 26 34 39 50 98 117 46 41 46 45 32 24 29 25 30 48 50 59 74 76 87 103 119 121 128 140 140 141 155 161 161 167 165
250 241 280 52 120 126 61 81 358 340 78 28 30 31 17 356 65 48 28 31 40 42 31 28 36 51 56 42 46 67 71 72 72 101 128 139 148 152 157 166 163 166 174 171
80 3 359 66 72 100 99 25 358 255 102 79 52 38 41 67 61 66 43 46 45 44 43 47 51 52 53 55 73 76 62 50 48 65 99 131 146 155 170 176 182 176 179 174
336 319 61 196 162 133 92 175 295 88 96 89 61 49 71 83 86 75 66 55 44 46 45 43 52 52 43 40 62 63 55 44 54 63 81 96 112 149 167 174 174 177 178 181
186 358 21 351 44 85 82 79 97 47 109 82 75 59 71 86 91 71 58 49 53 49 45 47 63 60 45 47 55 51 30 37 34 52 70 79 89 112 147 167 183 189 193 197
188 203 226 212 139 138 129 120 103 86 90 81 66 63 51 98 99 66 49 45 45 41 39 38 51 60 63 56 55 51 40 34 34 30 30 26 40 189 202 210 205 207 209 217
50 161 185 146 160 156 184 175 148 129 118 102 68 49 51 86 68 94 120 110 98 79 65 56 61 61 54 47 48 45 41 47 61 57 44 356 332 295 266 255 251 253 252 245
184 184 193 232 168 195 171 168 164 157 144 103 87 81 44 342 331 31 112 100 131 115 89 75 69 73 67 59 53 39 30 26 26 49 51 40 339 296 286 274 280 266 267 264